Tracking 19720 objects as of 26-Jun-2019
HD Live streaming from Space Station
objects crossing your sky now

COSMOS 832

Track COSMOS 832 now!
10-day predictions
COSMOS 832 is classified as:


NORAD ID: 8896
Int'l Code: 1976-054H
Perigee: 1,489.3 km
Apogee: 1,527.3 km
Inclination: 74.0 °
Period: 116.0 minutes
Semi major axis: 7879 km
RCS: 0.7035 m2 (medium)
Launch date: June 15, 1976
Source: Commonwealth of Independent States (former USSR) (CIS)
Launch site: PLESETSK MISSILE AND SPACE COMPLEX (PKMTR)
aabbcc
Your satellite tracking list
Your tracking list is empty




NASA's NSSDC Master Catalog

Two Line Element Set (TLE):
1  8896U 76054H   19176.08766968 -.00000022  00000-0 -45236-4 0  9997
2  8896  74.0020  54.4134 0024087  92.6761  14.5971 12.41284050949780
Source of the keplerian elements: AFSPC